JCSAT-18 (KACIFIC 1)

Last updated on Mon Oct 14 2024 00:02:41 GMT+0000 (Coordinated Universal Time)

1 44868U 19091A 24287.57559278 -.00000202 00000+0 00000+0 0 9994 2 44868 0.0367 340.3550 0000212 247.0232 152.4863 1.00271022 17870
UTC large
Height (km)
Speed (km/s)
/
Latitude / Longitude
Inclination (degrees)
Orbital Period (minutes)
Azimuth
Elevation
Range (km)
Doppler Factor

Next 0 passes for location: London (51.5072 / 0.1276)

Sorry there are no passes over London.